天启-21星 (TIANQI-21)

导读

TIANQI 21(天启21,又称“合肥高新一号”),是中国天启星座的组网卫星,于北京时间2023年9月5日在山东海阳,由谷神星一号运载火箭成功发射,本次任务采取“一箭四星”方式,一同发射天启22-24星。该卫星是合肥低轨卫星产业布局的重要成果,将为天启星座低轨物联网提供通信服务支撑,推动天地一体化物联网应用落地。

基本信息
目录编号:
57792
目录名称:
TIANQI 21
国际标识:
2023-135A
轨道中心:
EARTH
卫星名称:
天启-21星
卫星全名:
天启-21星 (TIANQI-21)
卫星状态:
在轨 (已飞行1105 天)
发射日期:
2023-09-05 UTC
国别 :
中国 (CN)
星等 :
--
该卫星已列入 空间交会检测服务 Space Conjunction Data Service (SCDS) ,当前飞行风险评估等级: 无高风险
轨道信息
数据来源 国际轨道数据 AOE轨道数据
星历时间 2026-09-14T12:02:18+0800
4小时前
查看轨道信息
2026-09-13T00:00:00+0800
1天前
查看轨道信息
半长轴 7192.818km 7192.814km
偏心率 0.0012866 0.0012967
轨道倾角 49.971° 49.971°
近地点辐角 207.363° 202.275°
升交点赤经 137.912° 144.232°
平近点角 152.661° 19.272°
近地点 805.426km 805.35km
远地点 823.936km 824.004km
周期 101.183分钟 101.183分钟
每日圈数 14.231615 14.231627
详细信息
平衡模式:
三轴稳定
覆盖范围:
全球
运营商:
北京国电高科科技有限公司
运营商所在国:
中国
制造商(研发单位):
北京国电高科科技有限公司
制造商所在国:
中国
使用方式:
暂无
卫星简介
天启星座(Tianqi)由38颗卫星组网而成,提供全球短数据采集。致力于为全球物联网相关行业用户提供覆盖全球、准实时的物联网卫星数据服务,真正实现空中、海洋和地面的万物互联,构建天地一体化的卫星物联网生态系统,全面解决海上、空中以及陆地网络盲区(我国有70%以上陆地没有网络覆盖)的物联网数据通信问题。该卫星仍在工作。
2D轨道图
3D轨道图
轨道高度分析图
轨道倾角分析图
轨道综合分析图
查看轨道综合分析图
交会数据列表
事件ID 空间交会对象 最接近时刻(TCA) 交会距离 交会风险概率(CRP) 交会风险指数(CRI) 操作
CDM_260914-203101-265805-779227
2026-09-14T
20:31:09+0000
1.248 km
极远距离
8.278516E-6 低风险 0.53
与全量物体交会距离演化趋势 订阅飞行安全评估服务
与全量物体交会风险概率演化趋势 订阅飞行安全评估服务